Epoch 2003 Oct. 8.0 TT = JDT 2452920.5 T 2003 Sept. 22.56134 TT MPC q 0.9032799 (2000.0) P Q z -0.0003653 Peri. 252.06756 -0.33229991 +0.91739637 +/-0.0000243 Node 12.80163 +0.44090196 +0.35635548 e 1.0003300 Incl. 98.74683 -0.83377589 -0.17718539 >From 98 observations 2002 July 29-2003 Jan. 4, mean residual 0".58.
m1 = 9.5 + 5 logΔ + 7.5 log r [ ,-40] ( 〜2003年 8月13日) m1 = 11 + 5 logΔ - 15 log r [-40, 0] (2003年 8月13日〜2003年 9月22日) m1 = 14 + 5 logΔ + 50 log r [ 0, ] (2003年 9月22日〜 ) ※ 灰色の曲線は、m1 = 9.5 + 5 logΔ + 7.5 log r の光度曲線です。